Time,TemperatureF,DewpointF,PressureIn,WindDirection,WindDirectionDegrees,WindSpeedMPH,WindSpeedGustMPH,Humidity,HourlyPrecipIn,Conditions,Clouds,dailyrainin,SoftwareType,DateUTC
2013-07-14 00:02:00,71.0,67.9,29.94,SSE,158,0.0,0.0,90,0.00,,---,0.00,VWS V14.01,2013-07-14 05:02:00,
2013-07-14 00:07:00,71.0,67.9,29.94,SSE,158,0.0,0.0,90,0.00,,---,0.00,VWS V14.01,2013-07-14 05:07:00,
2013-07-14 00:12:00,70.8,67.7,29.94,SSE,158,0.0,0.0,90,0.00,,---,0.00,VWS V14.01,2013-07-14 05:12:00,
2013-07-14 00:17:00,70.8,67.7,29.94,SSE,158,0.0,0.0,90,0.00,,---,0.00,VWS V14.01,2013-07-14 05:17:00,
2013-07-14 00:22:00,70.8,67.7,29.94,SSE,158,0.0,0.0,90,0.00,,---,0.00,VWS V14.01,2013-07-14 05:22:00,
2013-07-14 00:27:00,70.8,67.7,29.94,WNW,292,0.0,0.0,90,0.00,,---,0.00,VWS V14.01,2013-07-14 05:27:00,
2013-07-14 00:32:00,70.6,67.6,29.91,WNW,292,0.0,0.0,90,0.00,,---,0.00,VWS V14.01,2013-07-14 05:32:00,
2013-07-14 00:37:00,70.6,67.9,29.91,WNW,292,0.0,0.0,91,0.00,,---,0.00,VWS V14.01,2013-07-14 05:37:00,
2013-07-14 00:42:00,70.6,67.9,29.91,NE,45,0.0,0.0,91,0.00,,---,0.00,VWS V14.01,2013-07-14 05:42:00,
2013-07-14 00:47:00,70.6,67.9,29.91,NNE,22,0.0,0.0,91,0.00,,---,0.00,VWS V14.01,2013-07-14 05:47:00,
2013-07-14 00:52:00,70.4,67.7,29.91,NNW,338,0.0,0.0,91,0.00,,---,0.00,VWS V14.01,2013-07-14 05:52:00,
2013-07-14 00:57:00,70.4,67.7,29.91,NNW,338,0.0,0.0,91,0.00,,---,0.00,VWS V14.01,2013-07-14 05:57:00,
2013-07-14 01:02:00,70.4,67.7,29.91,NNW,338,0.0,0.0,91,0.00,,---,0.00,VWS V14.01,2013-07-14 06:02:00,
2013-07-14 01:07:00,70.4,67.7,29.91,WNW,292,0.0,0.0,91,0.00,,---,0.00,VWS V14.01,2013-07-14 06:07:00,
2013-07-14 01:12:00,70.3,67.5,29.91,NNE,22,0.0,0.0,91,0.00,,---,0.00,VWS V14.01,2013-07-14 06:12:00,
2013-07-14 01:17:00,70.3,67.8,29.91,NNE,22,0.0,0.0,92,0.00,,---,0.00,VWS V14.01,2013-07-14 06:17:00,
2013-07-14 01:22:00,70.3,67.8,29.91,NNW,338,0.0,0.0,92,0.00,,---,0.00,VWS V14.01,2013-07-14 06:22:00,
2013-07-14 01:27:00,70.3,67.8,29.91,NNW,338,0.0,0.0,92,0.00,,---,0.00,VWS V14.01,2013-07-14 06:27:00,
2013-07-14 01:32:00,70.3,67.8,29.91,NNW,338,0.0,0.0,92,0.00,,---,0.00,VWS V14.01,2013-07-14 06:32:00,
2013-07-14 01:37:00,70.3,67.8,29.91,NNE,22,0.0,0.0,92,0.00,,---,0.00,VWS V14.01,2013-07-14 06:37:00,
2013-07-14 01:42:00,70.3,67.8,29.91,NNE,22,0.0,0.0,92,0.00,,---,0.00,VWS V14.01,2013-07-14 06:42:00,
2013-07-14 01:47:00,70.1,67.7,29.91,NNE,22,0.0,0.0,92,0.00,,---,0.00,VWS V14.01,2013-07-14 06:47:00,
2013-07-14 01:52:00,70.1,67.7,29.91,NNE,22,0.0,0.0,92,0.00,,---,0.00,VWS V14.01,2013-07-14 06:52:00,
2013-07-14 01:57:00,70.1,67.7,29.91,NE,45,0.0,0.0,92,0.00,,---,0.00,VWS V14.01,2013-07-14 06:57:00,
2013-07-14 02:02:00,69.9,67.5,29.91,ENE,68,0.0,0.0,92,0.00,,---,0.00,VWS V14.01,2013-07-14 07:02:00,
2013-07-14 02:07:00,69.9,67.5,29.91,NNE,22,0.0,0.0,92,0.00,,---,0.00,VWS V14.01,2013-07-14 07:07:00,
2013-07-14 02:13:00,69.9,67.5,29.91,NNE,22,0.0,0.0,92,0.00,,---,0.00,VWS V14.01,2013-07-14 07:13:00,
2013-07-14 02:18:00,69.9,67.5,29.91,North,0,0.0,0.0,92,0.00,,---,0.00,VWS V14.01,2013-07-14 07:18:00,
2013-07-14 02:23:00,69.9,67.5,29.91,North,0,0.0,0.0,92,0.00,,---,0.00,VWS V14.01,2013-07-14 07:23:00,
2013-07-14 02:28:00,69.9,67.5,29.91,North,0,0.0,0.0,92,0.00,,---,0.00,VWS V14.01,2013-07-14 07:28:00,
2013-07-14 02:33:00,69.7,67.3,29.91,North,0,0.0,0.0,92,0.00,,---,0.00,VWS V14.01,2013-07-14 07:33:00,
2013-07-14 02:38:00,69.7,67.3,29.91,NW,315,0.0,0.0,92,0.00,,---,0.00,VWS V14.01,2013-07-14 07:38:00,
2013-07-14 02:43:00,69.7,67.3,29.88,NW,315,0.0,0.0,92,0.00,,---,0.00,VWS V14.01,2013-07-14 07:43:00,
2013-07-14 02:48:00,69.5,67.1,29.88,NW,315,0.0,0.0,92,0.00,,---,0.00,VWS V14.01,2013-07-14 07:48:00,
2013-07-14 02:53:00,69.4,66.9,29.88,NW,315,0.0,0.0,92,0.00,,---,0.00,VWS V14.01,2013-07-14 07:53:00,
2013-07-14 02:58:00,69.4,66.9,29.88,NE,45,0.0,0.0,92,0.00,,---,0.00,VWS V14.01,2013-07-14 07:58:00,
2013-07-14 03:03:00,69.4,67.2,29.88,NE,45,0.0,0.0,93,0.00,,---,0.00,VWS V14.01,2013-07-14 08:03:00,
2013-07-14 03:08:00,69.4,67.2,29.88,NE,45,0.0,0.0,93,0.00,,---,0.00,VWS V14.01,2013-07-14 08:08:00,
2013-07-14 03:13:00,69.4,67.2,29.88,NE,45,0.0,0.0,93,0.00,,---,0.00,VWS V14.01,2013-07-14 08:13:00,
2013-07-14 03:18:00,69.4,67.2,29.88,SSW,202,0.0,0.0,93,0.00,,---,0.00,VWS V14.01,2013-07-14 08:18:00,
2013-07-14 03:23:00,69.4,67.2,29.88,SSW,202,0.0,0.0,93,0.00,,---,0.00,VWS V14.01,2013-07-14 08:23:00,
2013-07-14 03:28:00,69.4,67.2,29.88,SSW,202,0.0,0.0,93,0.00,,---,0.00,VWS V14.01,2013-07-14 08:28:00,
2013-07-14 03:33:00,69.4,67.2,29.88,WSW,248,0.0,0.0,93,0.00,,---,0.00,VWS V14.01,2013-07-14 08:33:00,
2013-07-14 03:38:00,69.4,67.2,29.88,WSW,248,0.0,0.0,93,0.00,,---,0.00,VWS V14.01,2013-07-14 08:38:00,
2013-07-14 03:43:00,69.4,67.2,29.91,WSW,248,0.0,0.0,93,0.00,,---,0.00,VWS V14.01,2013-07-14 08:43:00,
2013-07-14 03:48:00,69.4,67.2,29.91,WSW,248,0.0,0.0,93,0.00,,---,0.00,VWS V14.01,2013-07-14 08:48:00,
2013-07-14 03:53:00,69.0,66.9,29.91,WSW,248,0.0,0.0,93,0.00,,---,0.00,VWS V14.01,2013-07-14 08:53:00,
2013-07-14 03:58:00,69.0,66.9,29.91,WSW,248,0.0,0.0,93,0.00,,---,0.00,VWS V14.01,2013-07-14 08:58:00,
2013-07-14 04:03:00,69.0,66.9,29.91,WSW,248,0.0,0.0,93,0.00,,---,0.00,VWS V14.01,2013-07-14 09:03:00,
2013-07-14 04:08:00,69.0,66.9,29.91,WSW,248,0.0,0.0,93,0.00,,---,0.00,VWS V14.01,2013-07-14 09:08:00,
2013-07-14 04:13:00,68.8,67.0,29.91,WSW,248,0.0,0.0,94,0.00,,---,0.00,VWS V14.01,2013-07-14 09:13:00,
2013-07-14 04:18:00,68.8,67.0,29.91,WSW,248,0.0,0.0,94,0.00,,---,0.00,VWS V14.01,2013-07-14 09:18:00,
2013-07-14 04:23:00,68.8,67.0,29.91,WSW,248,0.0,0.0,94,0.00,,---,0.00,VWS V14.01,2013-07-14 09:23:00,
2013-07-14 04:28:00,68.8,67.0,29.91,WSW,248,0.0,0.0,94,0.00,,---,0.00,VWS V14.01,2013-07-14 09:28:00,
2013-07-14 04:33:00,68.8,67.0,29.91,WSW,248,0.0,0.0,94,0.00,,---,0.00,VWS V14.01,2013-07-14 09:33:00,
2013-07-14 04:38:00,68.6,66.8,29.91,WSW,248,0.0,0.0,94,0.00,,---,0.00,VWS V14.01,2013-07-14 09:38:00,
2013-07-14 04:43:00,68.8,67.0,29.91,WSW,248,0.0,0.0,94,0.00,,---,0.00,VWS V14.01,2013-07-14 09:43:00,
2013-07-14 04:48:00,68.8,67.0,29.91,WSW,248,0.0,0.0,94,0.00,,---,0.00,VWS V14.01,2013-07-14 09:48:00,
2013-07-14 04:53:00,68.8,67.0,29.91,NNE,22,0.0,0.0,94,0.00,,---,0.00,VWS V14.01,2013-07-14 09:53:00,
2013-07-14 04:58:00,68.6,66.8,29.91,NNE,22,0.0,0.0,94,0.00,,---,0.00,VWS V14.01,2013-07-14 09:58:00,
2013-07-14 05:03:00,68.8,67.3,29.91,North,0,0.0,0.0,95,0.00,,---,0.00,VWS V14.01,2013-07-14 10:03:00,
2013-07-14 05:08:00,68.8,67.0,29.91,North,0,0.0,0.0,94,0.00,,---,0.00,VWS V14.01,2013-07-14 10:08:00,
2013-07-14 05:13:00,68.8,67.0,29.91,North,0,0.0,0.0,94,0.00,,---,0.00,VWS V14.01,2013-07-14 10:13:00,
2013-07-14 05:18:00,68.6,67.2,29.91,North,0,0.0,0.0,95,0.00,,---,0.00,VWS V14.01,2013-07-14 10:18:00,
2013-07-14 05:23:00,68.8,67.3,29.91,ENE,68,0.0,0.0,95,0.00,,---,0.00,VWS V14.01,2013-07-14 10:23:00,
2013-07-14 05:28:00,68.8,67.3,29.91,ENE,68,0.0,0.0,95,0.00,,---,0.00,VWS V14.01,2013-07-14 10:28:00,
2013-07-14 05:33:00,69.0,67.5,29.91,ENE,68,0.0,0.0,95,0.00,,---,0.00,VWS V14.01,2013-07-14 10:33:00,
2013-07-14 05:38:00,69.0,67.5,29.91,ENE,68,0.0,0.0,95,0.00,,---,0.00,VWS V14.01,2013-07-14 10:38:00,
2013-07-14 05:43:00,69.2,67.7,29.94,ENE,68,0.0,0.0,95,0.00,,---,0.00,VWS V14.01,2013-07-14 10:43:00,
2013-07-14 05:49:00,69.2,67.7,29.94,ENE,68,0.0,0.0,95,0.00,,---,0.00,VWS V14.01,2013-07-14 10:49:00,
2013-07-14 05:54:00,69.2,67.7,29.94,NNW,338,0.0,0.0,95,0.00,,---,0.00,VWS V14.01,2013-07-14 10:54:00,
2013-07-14 05:59:00,69.2,67.7,29.94,NE,45,0.0,0.0,95,0.00,,---,0.00,VWS V14.01,2013-07-14 10:59:00,
2013-07-14 06:04:00,69.4,67.9,29.94,NE,45,0.0,0.0,95,0.00,,---,0.00,VWS V14.01,2013-07-14 11:04:00,
2013-07-14 06:09:00,69.4,67.9,29.94,NE,45,0.0,0.0,95,0.00,,---,0.00,VWS V14.01,2013-07-14 11:09:00,
2013-07-14 06:14:00,69.5,68.1,29.94,NE,45,0.0,0.0,95,0.00,,---,0.00,VWS V14.01,2013-07-14 11:14:00,
2013-07-14 06:19:00,69.5,68.1,29.94,NE,45,0.0,0.0,95,0.00,,---,0.00,VWS V14.01,2013-07-14 11:19:00,
2013-07-14 06:24:00,69.5,68.3,29.94,NE,45,0.0,0.0,96,0.00,,---,0.00,VWS V14.01,2013-07-14 11:24:00,
2013-07-14 06:29:00,69.5,68.3,29.94,NE,45,0.0,0.0,96,0.00,,---,0.00,VWS V14.01,2013-07-14 11:29:00,
2013-07-14 06:34:00,69.7,68.5,29.94,NE,45,0.0,0.0,96,0.00,,---,0.00,VWS V14.01,2013-07-14 11:34:00,
2013-07-14 06:39:00,69.7,68.5,29.94,NE,45,0.0,0.0,96,0.00,,---,0.00,VWS V14.01,2013-07-14 11:39:00,
2013-07-14 06:44:00,69.9,68.7,29.94,NE,45,0.0,0.0,96,0.00,,---,0.00,VWS V14.01,2013-07-14 11:44:00,
2013-07-14 06:49:00,69.9,68.7,29.94,ENE,68,0.0,0.0,96,0.00,,---,0.00,VWS V14.01,2013-07-14 11:49:00,
2013-07-14 06:54:00,70.1,68.9,29.94,ENE,68,0.0,0.0,96,0.00,,---,0.00,VWS V14.01,2013-07-14 11:54:00,
2013-07-14 06:59:00,70.3,69.1,29.94,ENE,68,0.0,0.0,96,0.00,,---,0.00,VWS V14.01,2013-07-14 11:59:00,
2013-07-14 07:04:00,70.4,69.2,29.94,ENE,68,0.0,0.0,96,0.00,,---,0.00,VWS V14.01,2013-07-14 12:04:00,
2013-07-14 07:09:00,70.4,69.2,29.94,ENE,68,0.0,0.0,96,0.00,,---,0.00,VWS V14.01,2013-07-14 12:09:00,
2013-07-14 07:14:00,70.6,69.4,29.94,North,0,0.0,0.0,96,0.00,,---,0.00,VWS V14.01,2013-07-14 12:14:00,
2013-07-14 07:19:00,71.0,69.8,29.94,SE,135,0.0,0.0,96,0.00,,---,0.00,VWS V14.01,2013-07-14 12:19:00,
2013-07-14 07:24:00,71.2,70.0,29.94,SE,135,0.0,0.0,96,0.00,,---,0.00,VWS V14.01,2013-07-14 12:24:00,
2013-07-14 07:29:00,71.3,70.1,29.94,ESE,112,0.0,0.0,96,0.00,,---,0.00,VWS V14.01,2013-07-14 12:29:00,
2013-07-14 07:34:00,71.5,70.3,29.94,ESE,112,0.0,0.0,96,0.00,,---,0.00,VWS V14.01,2013-07-14 12:34:00,
2013-07-14 07:39:00,71.7,70.5,29.94,SE,135,0.0,0.0,96,0.00,,---,0.00,VWS V14.01,2013-07-14 12:39:00,
2013-07-14 07:44:00,71.9,70.7,29.97,NE,45,0.0,0.0,96,0.00,,---,0.00,VWS V14.01,2013-07-14 12:44:00,
2013-07-14 07:49:00,72.2,71.0,29.97,ESE,112,0.0,0.0,96,0.00,,---,0.00,VWS V14.01,2013-07-14 12:49:00,
2013-07-14 07:54:00,72.4,70.9,29.97,West,270,0.0,0.0,95,0.00,,---,0.00,VWS V14.01,2013-07-14 12:54:00,
2013-07-14 07:59:00,72.6,71.1,29.94,SSE,158,0.0,0.0,95,0.00,,---,0.00,VWS V14.01,2013-07-14 12:59:00,
2013-07-14 08:04:00,72.6,70.8,29.94,ESE,112,0.0,0.0,94,0.00,,---,0.00,VWS V14.01,2013-07-14 13:04:00,
2013-07-14 08:09:00,73.0,71.1,29.94,ESE,112,0.0,0.0,94,0.00,,---,0.00,VWS V14.01,2013-07-14 13:09:00,
2013-07-14 08:14:00,73.1,71.0,29.97,WSW,248,0.0,0.0,93,0.00,,---,0.00,VWS V14.01,2013-07-14 13:14:00,
2013-07-14 08:19:00,73.1,71.0,29.97,ENE,68,0.0,0.0,93,0.00,,---,0.00,VWS V14.01,2013-07-14 13:19:00,
2013-07-14 08:24:00,73.1,70.7,29.97,SSE,158,0.0,0.0,92,0.00,,---,0.00,VWS V14.01,2013-07-14 13:24:00,
2013-07-14 08:29:00,73.3,70.9,29.97,WSW,248,0.0,0.0,92,0.00,,---,0.00,VWS V14.01,2013-07-14 13:29:00,
2013-07-14 08:35:00,73.5,71.0,29.97,NNW,338,0.0,0.0,92,0.00,,---,0.00,VWS V14.01,2013-07-14 13:35:00,
2013-07-14 08:40:00,73.7,70.9,29.97,South,180,0.0,0.0,91,0.00,,---,0.00,VWS V14.01,2013-07-14 13:40:00,
2013-07-14 08:45:00,73.9,71.1,29.97,NE,45,0.0,0.0,91,0.00,,---,0.00,VWS V14.01,2013-07-14 13:45:00,
2013-07-14 08:50:00,74.0,71.2,29.97,ESE,112,0.0,0.0,91,0.00,,---,0.00,VWS V14.01,2013-07-14 13:50:00,
2013-07-14 08:55:00,74.0,70.9,29.97,SE,135,0.0,0.0,90,0.00,,---,0.00,VWS V14.01,2013-07-14 13:55:00,
2013-07-14 09:00:00,74.4,71.3,29.97,SSE,158,0.0,0.0,90,0.00,,---,0.00,VWS V14.01,2013-07-14 14:00:00,
2013-07-14 09:05:00,74.8,71.6,29.97,SSE,158,0.0,0.0,90,0.00,,---,0.00,VWS V14.01,2013-07-14 14:05:00,
2013-07-14 09:10:00,74.8,71.3,29.97,SSE,158,0.0,0.0,89,0.00,,---,0.00,VWS V14.01,2013-07-14 14:10:00,
2013-07-14 09:15:00,74.9,71.2,29.97,ESE,112,0.0,0.0,88,0.00,,---,0.00,VWS V14.01,2013-07-14 14:15:00,
2013-07-14 09:20:00,75.1,71.3,29.97,ENE,68,0.0,0.0,88,0.00,,---,0.00,VWS V14.01,2013-07-14 14:20:00,
2013-07-14 09:25:00,74.9,70.8,29.97,ENE,68,0.0,0.0,87,0.00,,---,0.00,VWS V14.01,2013-07-14 14:25:00,
2013-07-14 09:30:00,74.9,70.8,29.97,NNE,22,0.0,0.0,87,0.00,,---,0.00,VWS V14.01,2013-07-14 14:30:00,
2013-07-14 09:35:00,74.9,70.8,29.97,SSE,158,0.0,0.0,87,0.00,,---,0.00,VWS V14.01,2013-07-14 14:35:00,
2013-07-14 09:40:00,74.9,70.8,29.97,NE,45,0.0,0.0,87,0.00,,---,0.00,VWS V14.01,2013-07-14 14:40:00,
2013-07-14 09:45:00,74.9,70.8,29.97,SSE,158,0.0,0.0,87,0.00,,---,0.00,VWS V14.01,2013-07-14 14:45:00,
2013-07-14 09:50:00,75.1,71.0,29.97,WSW,248,0.0,0.0,87,0.00,,---,0.00,VWS V14.01,2013-07-14 14:50:00,
2013-07-14 09:55:00,75.1,71.0,29.97,ENE,68,0.0,0.0,87,0.00,,---,0.00,VWS V14.01,2013-07-14 14:55:00,
2013-07-14 10:00:00,75.3,71.2,29.97,SSE,158,0.0,0.0,87,0.00,,---,0.00,VWS V14.01,2013-07-14 15:00:00,
2013-07-14 10:05:00,75.7,71.5,29.97,NE,45,0.0,0.0,87,0.00,,---,0.00,VWS V14.01,2013-07-14 15:05:00,
2013-07-14 10:10:00,76.0,71.9,29.97,SSW,202,0.0,0.0,87,0.00,,---,0.00,VWS V14.01,2013-07-14 15:10:00,
2013-07-14 10:15:00,76.2,71.4,29.97,SSE,158,0.0,0.0,85,0.00,,---,0.00,VWS V14.01,2013-07-14 15:15:00,
2013-07-14 10:20:00,76.4,71.5,29.97,SSE,158,0.0,0.0,85,0.00,,---,0.00,VWS V14.01,2013-07-14 15:20:00,
2013-07-14 10:25:00,76.6,71.7,29.97,ESE,112,0.0,0.0,85,0.00,,---,0.00,VWS V14.01,2013-07-14 15:25:00,
2013-07-14 10:30:00,76.9,71.7,29.97,SE,135,0.0,0.0,84,0.00,,---,0.00,VWS V14.01,2013-07-14 15:30:00,
2013-07-14 10:35:00,77.3,72.1,29.97,WSW,248,0.0,0.0,84,0.00,,---,0.00,VWS V14.01,2013-07-14 15:35:00,
2013-07-14 10:40:00,77.5,72.2,29.97,NW,315,0.0,0.0,84,0.00,,---,0.00,VWS V14.01,2013-07-14 15:40:00,
2013-07-14 10:45:00,77.6,72.1,29.97,South,180,0.0,0.0,83,0.00,,---,0.00,VWS V14.01,2013-07-14 15:45:00,
2013-07-14 10:50:00,78.4,72.4,29.97,NNE,22,0.0,0.0,82,0.00,,---,0.00,VWS V14.01,2013-07-14 15:50:00,
2013-07-14 10:55:00,79.1,72.8,29.97,SSE,158,0.0,0.0,81,0.00,,---,0.00,VWS V14.01,2013-07-14 15:55:00,
2013-07-14 11:00:00,79.6,72.9,30.00,SSE,158,0.0,0.0,80,0.00,,---,0.00,VWS V14.01,2013-07-14 16:00:00,
2013-07-14 11:05:00,79.4,72.0,30.00,SSE,158,0.0,0.0,78,0.00,,---,0.00,VWS V14.01,2013-07-14 16:05:00,
2013-07-14 11:10:00,79.6,71.4,30.00,West,270,0.0,0.0,76,0.00,,---,0.00,VWS V14.01,2013-07-14 16:10:00,
2013-07-14 11:15:00,79.6,71.8,30.00,West,270,0.0,0.0,77,0.00,,---,0.00,VWS V14.01,2013-07-14 16:15:00,
2013-07-14 11:20:00,79.6,71.8,30.00,ENE,68,0.0,0.0,77,0.00,,---,0.00,VWS V14.01,2013-07-14 16:20:00,
2013-07-14 11:25:00,79.6,71.8,30.00,ESE,112,0.0,0.0,77,0.00,,---,0.00,VWS V14.01,2013-07-14 16:25:00,
2013-07-14 11:30:00,80.0,72.1,30.00,ESE,112,0.0,0.0,77,0.00,,---,0.00,VWS V14.01,2013-07-14 16:30:00,
2013-07-14 11:35:00,80.3,72.9,30.00,SSE,158,0.0,0.0,78,0.00,,---,0.00,VWS V14.01,2013-07-14 16:35:00,
2013-07-14 11:41:00,80.7,72.8,30.00,SSE,158,0.0,0.0,77,0.00,,---,0.00,VWS V14.01,2013-07-14 16:41:00,
2013-07-14 11:46:00,80.9,71.8,30.00,SSW,202,0.0,0.0,74,0.00,,---,0.00,VWS V14.01,2013-07-14 16:46:00,
2013-07-14 11:51:00,81.2,72.2,30.00,SSE,158,0.0,0.0,74,0.00,,---,0.00,VWS V14.01,2013-07-14 16:51:00,
2013-07-14 11:56:00,81.6,72.1,30.00,SSW,202,0.0,0.0,73,0.00,,---,0.00,VWS V14.01,2013-07-14 16:56:00,
2013-07-14 12:01:00,82.0,72.5,30.00,SSW,202,0.0,0.0,73,0.00,,---,0.00,VWS V14.01,2013-07-14 17:01:00,
2013-07-14 12:06:00,82.5,73.4,30.00,NE,45,0.0,0.0,74,0.00,,---,0.00,VWS V14.01,2013-07-14 17:06:00,
2013-07-14 12:11:00,82.9,73.7,30.00,SSW,202,0.0,0.0,74,0.00,,---,0.00,VWS V14.01,2013-07-14 17:11:00,
2013-07-14 12:16:00,82.9,72.9,30.00,NNE,22,0.0,0.0,72,0.00,,---,0.00,VWS V14.01,2013-07-14 17:16:00,
2013-07-14 12:21:00,82.9,72.5,30.00,SE,135,0.0,0.0,71,0.00,,---,0.00,VWS V14.01,2013-07-14 17:21:00,
2013-07-14 12:26:00,82.9,71.7,30.00,SSW,202,0.0,0.0,69,0.00,,---,0.00,VWS V14.01,2013-07-14 17:26:00,
2013-07-14 12:31:00,83.0,72.7,29.97,SSE,158,0.0,0.0,71,0.00,,---,0.00,VWS V14.01,2013-07-14 17:31:00,
2013-07-14 12:36:00,83.2,72.0,29.97,West,270,0.0,0.0,69,0.00,,---,0.00,VWS V14.01,2013-07-14 17:36:00,
2013-07-14 12:41:00,82.9,71.7,29.97,SSE,158,0.0,0.0,69,0.00,,---,0.00,VWS V14.01,2013-07-14 17:41:00,
2013-07-14 12:46:00,83.2,72.4,29.97,SSW,202,0.0,0.0,70,0.00,,---,0.00,VWS V14.01,2013-07-14 17:46:00,
2013-07-14 12:51:00,83.0,72.2,29.97,SE,135,0.0,0.0,70,0.00,,---,0.00,VWS V14.01,2013-07-14 17:51:00,
2013-07-14 12:56:00,82.9,72.1,29.97,NNE,22,0.0,0.0,70,0.00,,---,0.00,VWS V14.01,2013-07-14 17:56:00,
2013-07-14 13:01:00,82.9,72.5,29.97,ENE,68,0.0,0.0,71,0.00,,---,0.00,VWS V14.01,2013-07-14 18:01:00,
2013-07-14 13:06:00,83.6,72.8,29.97,SSW,202,0.0,0.0,70,0.00,,---,0.00,VWS V14.01,2013-07-14 18:06:00,
2013-07-14 13:11:00,84.1,71.1,29.97,SSW,202,0.0,0.0,65,0.00,,---,0.00,VWS V14.01,2013-07-14 18:11:00,
2013-07-14 13:16:00,83.8,71.6,29.97,SSE,158,0.0,0.0,67,0.00,,---,0.00,VWS V14.01,2013-07-14 18:16:00,
2013-07-14 13:21:00,83.8,72.1,29.97,SSW,202,0.0,0.0,68,0.00,,---,0.00,VWS V14.01,2013-07-14 18:21:00,
2013-07-14 13:26:00,83.9,71.8,29.97,WSW,248,0.0,0.0,67,0.00,,---,0.00,VWS V14.01,2013-07-14 18:26:00,
2013-07-14 13:31:00,83.8,71.6,29.97,SSW,202,0.0,0.0,67,0.00,,---,0.00,VWS V14.01,2013-07-14 18:31:00,
2013-07-14 13:36:00,84.5,72.3,29.97,NNE,22,0.0,0.0,67,0.00,,---,0.00,VWS V14.01,2013-07-14 18:36:00,
2013-07-14 13:41:00,85.0,72.8,29.97,WSW,248,0.0,0.0,67,0.00,,---,0.00,VWS V14.01,2013-07-14 18:41:00,
2013-07-14 13:46:00,85.0,72.8,29.97,WSW,248,0.0,0.0,67,0.00,,---,0.00,VWS V14.01,2013-07-14 18:46:00,
2013-07-14 13:51:00,85.6,72.5,29.97,ESE,112,0.0,0.0,65,0.00,,---,0.00,VWS V14.01,2013-07-14 18:51:00,
2013-07-14 13:56:00,85.2,72.1,29.97,South,180,0.0,0.0,65,0.00,,---,0.00,VWS V14.01,2013-07-14 18:56:00,
2013-07-14 14:01:00,85.6,72.5,29.97,SW,225,0.0,0.0,65,0.00,,---,0.00,VWS V14.01,2013-07-14 19:01:00,
2013-07-14 14:06:00,86.1,73.0,29.97,ENE,68,0.0,0.0,65,0.00,,---,0.00,VWS V14.01,2013-07-14 19:06:00,
2013-07-14 14:11:00,85.4,72.3,29.97,North,0,0.0,0.0,65,0.00,,---,0.00,VWS V14.01,2013-07-14 19:11:00,
2013-07-14 14:16:00,84.5,71.4,29.97,ENE,68,0.0,0.0,65,0.00,,---,0.00,VWS V14.01,2013-07-14 19:16:00,
2013-07-14 14:21:00,83.8,71.6,29.97,ENE,68,0.0,0.0,67,0.00,,---,0.00,VWS V14.01,2013-07-14 19:21:00,
2013-07-14 14:27:00,84.3,71.7,29.97,NNW,338,0.0,0.0,66,0.00,,---,0.00,VWS V14.01,2013-07-14 19:27:00,
2013-07-14 14:32:00,85.4,73.6,29.97,SSE,158,0.0,0.0,68,0.00,,---,0.00,VWS V14.01,2013-07-14 19:32:00,
2013-07-14 14:37:00,85.6,72.0,29.97,ENE,68,0.0,0.0,64,0.00,,---,0.00,VWS V14.01,2013-07-14 19:37:00,
2013-07-14 14:42:00,85.6,72.0,29.97,ENE,68,0.0,0.0,64,0.00,,---,0.00,VWS V14.01,2013-07-14 19:42:00,
2013-07-14 14:47:00,85.2,71.7,29.97,ENE,68,0.0,0.0,64,0.00,,---,0.00,VWS V14.01,2013-07-14 19:47:00,
2013-07-14 14:52:00,85.7,72.2,29.97,ENE,68,0.0,0.0,64,0.00,,---,0.00,VWS V14.01,2013-07-14 19:52:00,
2013-07-14 14:57:00,85.9,72.3,29.97,NE,45,0.0,0.0,64,0.00,,---,0.00,VWS V14.01,2013-07-14 19:57:00,
2013-07-14 15:02:00,86.3,72.2,29.94,NE,45,0.0,0.0,63,0.00,,---,0.00,VWS V14.01,2013-07-14 20:02:00,
2013-07-14 15:07:00,85.7,71.7,29.94,West,270,0.0,0.0,63,0.00,,---,0.00,VWS V14.01,2013-07-14 20:07:00,
2013-07-14 15:12:00,85.7,71.7,29.94,ENE,68,0.0,0.0,63,0.00,,---,0.00,VWS V14.01,2013-07-14 20:12:00,
2013-07-14 15:17:00,86.1,71.6,29.94,ESE,112,0.0,0.0,62,0.00,,---,0.00,VWS V14.01,2013-07-14 20:17:00,
2013-07-14 15:22:00,85.9,71.4,29.94,East,90,0.0,0.0,62,0.00,,---,0.00,VWS V14.01,2013-07-14 20:22:00,
2013-07-14 15:27:00,85.4,71.4,29.94,East,90,0.0,0.0,63,0.00,,---,0.00,VWS V14.01,2013-07-14 20:27:00,
2013-07-14 15:32:00,85.4,71.4,29.94,NE,45,0.0,0.0,63,0.00,,---,0.00,VWS V14.01,2013-07-14 20:32:00,
2013-07-14 15:37:00,85.7,71.7,29.94,WNW,292,0.0,0.0,63,0.00,,---,0.00,VWS V14.01,2013-07-14 20:37:00,
2013-07-14 15:42:00,85.7,71.2,29.94,ENE,68,0.0,0.0,62,0.00,,---,0.00,VWS V14.01,2013-07-14 20:42:00,
2013-07-14 15:47:00,85.6,71.1,29.94,ENE,68,0.0,0.0,62,0.00,,---,0.00,VWS V14.01,2013-07-14 20:47:00,
2013-07-14 15:52:00,84.8,71.3,29.94,ENE,68,0.0,0.0,64,0.00,,---,0.00,VWS V14.01,2013-07-14 20:52:00,
2013-07-14 15:57:00,84.1,71.1,29.94,North,0,0.0,0.0,65,0.00,,---,0.00,VWS V14.01,2013-07-14 20:57:00,
2013-07-14 16:02:00,83.6,71.0,29.94,ENE,68,0.0,0.0,66,0.00,,---,0.00,VWS V14.01,2013-07-14 21:02:00,
2013-07-14 16:07:00,83.8,71.2,29.94,NE,45,0.0,0.0,66,0.00,,---,0.00,VWS V14.01,2013-07-14 21:07:00,
2013-07-14 16:12:00,83.9,71.8,29.94,East,90,0.0,0.0,67,0.00,,---,0.00,VWS V14.01,2013-07-14 21:12:00,
2013-07-14 16:17:00,84.1,72.4,29.94,SSE,158,0.0,0.0,68,0.00,,---,0.00,VWS V14.01,2013-07-14 21:17:00,
2013-07-14 16:22:00,83.8,72.1,29.94,SSE,158,0.0,0.0,68,0.00,,---,0.00,VWS V14.01,2013-07-14 21:22:00,
2013-07-14 16:27:00,83.4,71.7,29.94,SW,225,0.0,0.0,68,0.00,,---,0.00,VWS V14.01,2013-07-14 21:27:00,
2013-07-14 16:32:00,82.9,71.7,29.94,WSW,248,0.0,0.0,69,0.00,,---,0.00,VWS V14.01,2013-07-14 21:32:00,
2013-07-14 16:37:00,82.3,71.1,29.94,SW,225,0.0,0.0,69,0.00,,---,0.00,VWS V14.01,2013-07-14 21:37:00,
2013-07-14 16:42:00,82.0,71.6,29.94,ENE,68,0.0,0.0,71,0.00,,---,0.00,VWS V14.01,2013-07-14 21:42:00,
2013-07-14 16:47:00,81.6,71.3,29.94,NE,45,0.0,0.0,71,0.00,,---,0.00,VWS V14.01,2013-07-14 21:47:00,
2013-07-14 16:52:00,81.2,72.2,29.94,SE,135,0.0,0.0,74,0.00,,---,0.00,VWS V14.01,2013-07-14 21:52:00,
2013-07-14 16:57:00,81.1,71.6,29.94,ESE,112,0.0,0.0,73,0.00,,---,0.00,VWS V14.01,2013-07-14 21:57:00,
2013-07-14 17:02:00,80.9,71.8,29.94,ESE,112,0.0,0.0,74,0.00,,---,0.00,VWS V14.01,2013-07-14 22:02:00,
2013-07-14 17:07:00,80.7,71.7,29.94,ESE,112,0.0,0.0,74,0.00,,---,0.00,VWS V14.01,2013-07-14 22:07:00,
2013-07-14 17:12:00,80.5,71.9,29.94,SE,135,0.0,0.0,75,0.00,,---,0.00,VWS V14.01,2013-07-14 22:12:00,
2013-07-14 17:13:00,80.5,71.9,29.94,SE,135,0.0,0.0,75,0.00,,---,0.00,VWS V14.01,2013-07-14 22:13:00,
2013-07-14 17:18:00,80.3,72.5,29.94,SSE,158,0.0,0.0,77,0.00,,---,0.00,VWS V14.01,2013-07-14 22:18:00,
2013-07-14 17:23:00,80.2,72.3,29.94,SSE,158,0.0,0.0,77,0.00,,---,0.00,VWS V14.01,2013-07-14 22:23:00,
2013-07-14 17:28:00,80.2,73.1,29.94,SSE,158,0.0,0.0,79,0.00,,---,0.00,VWS V14.01,2013-07-14 22:28:00,
2013-07-14 17:33:00,80.0,72.9,29.94,SSE,158,0.0,0.0,79,0.00,,---,0.00,VWS V14.01,2013-07-14 22:33:00,
2013-07-14 17:38:00,79.8,72.7,29.94,SW,225,0.0,0.0,79,0.00,,---,0.00,VWS V14.01,2013-07-14 22:38:00,
2013-07-14 17:43:00,79.6,72.9,29.94,SSW,202,0.0,0.0,80,0.00,,---,0.00,VWS V14.01,2013-07-14 22:43:00,
2013-07-14 17:48:00,79.4,72.7,29.94,WSW,248,0.0,0.0,80,0.00,,---,0.00,VWS V14.01,2013-07-14 22:48:00,
2013-07-14 17:53:00,79.3,72.6,29.94,WSW,248,0.0,0.0,80,0.00,,---,0.00,VWS V14.01,2013-07-14 22:53:00,
2013-07-14 17:58:00,79.1,72.0,29.94,SW,225,0.0,0.0,79,0.00,,---,0.00,VWS V14.01,2013-07-14 22:58:00,
2013-07-14 18:03:00,78.9,71.5,29.94,WSW,248,0.0,0.0,78,0.00,,---,0.00,VWS V14.01,2013-07-14 23:03:00,
2013-07-14 18:08:00,78.5,70.7,29.94,SW,225,0.0,0.0,77,0.00,,---,0.00,VWS V14.01,2013-07-14 23:08:00,
2013-07-14 18:13:00,78.4,70.2,29.97,SSW,202,0.0,0.0,76,0.00,,---,0.00,VWS V14.01,2013-07-14 23:13:00,
2013-07-14 18:18:00,78.0,69.8,29.97,SSE,158,0.0,0.0,76,0.00,,---,0.00,VWS V14.01,2013-07-14 23:18:00,
2013-07-14 18:23:00,77.8,70.0,29.97,SW,225,0.0,0.0,77,0.00,,---,0.00,VWS V14.01,2013-07-14 23:23:00,
2013-07-14 18:28:00,77.6,69.5,29.97,WSW,248,0.0,0.0,76,0.00,,---,0.00,VWS V14.01,2013-07-14 23:28:00,
2013-07-14 18:33:00,77.3,69.1,29.97,WSW,248,0.0,0.0,76,0.00,,---,0.00,VWS V14.01,2013-07-14 23:33:00,
2013-07-14 18:38:00,76.7,69.0,29.97,SSE,158,0.0,0.0,77,0.00,,---,0.00,VWS V14.01,2013-07-14 23:38:00,
2013-07-14 18:43:00,76.2,68.8,29.97,SSE,158,0.0,0.0,78,0.00,,---,0.00,VWS V14.01,2013-07-14 23:43:00,
2013-07-14 18:48:00,75.7,69.1,29.97,SSE,158,0.0,0.0,80,0.00,,---,0.00,VWS V14.01,2013-07-14 23:48:00,
2013-07-14 18:53:00,75.3,68.7,29.97,ENE,68,0.0,0.0,80,0.00,,---,0.00,VWS V14.01,2013-07-14 23:53:00,
2013-07-14 18:58:00,74.8,68.6,29.97,NNW,338,0.0,0.0,81,0.00,,---,0.00,VWS V14.01,2013-07-14 23:58:00,
2013-07-14 19:03:00,74.2,68.7,29.97,NNW,338,0.0,0.0,83,0.00,,---,0.00,VWS V14.01,2013-07-15 00:03:00,
2013-07-14 19:08:00,73.9,69.4,29.97,NW,315,0.0,0.0,86,0.00,,---,0.00,VWS V14.01,2013-07-15 00:08:00,
2013-07-14 19:13:00,73.7,69.9,29.97,NW,315,0.0,0.0,88,0.00,,---,0.00,VWS V14.01,2013-07-15 00:13:00,
2013-07-14 19:18:00,73.7,69.9,29.97,NNE,22,0.0,0.0,88,0.00,,---,0.00,VWS V14.01,2013-07-15 00:18:00,
2013-07-14 19:23:00,73.5,69.7,29.97,ENE,68,0.0,0.0,88,0.00,,---,0.00,VWS V14.01,2013-07-15 00:23:00,
2013-07-14 19:28:00,73.5,69.7,29.97,NW,315,0.0,0.0,88,0.00,,---,0.00,VWS V14.01,2013-07-15 00:28:00,
2013-07-14 19:33:00,73.3,69.9,29.97,NW,315,0.0,0.0,89,0.00,,---,0.00,VWS V14.01,2013-07-15 00:33:00,
2013-07-14 19:38:00,73.1,70.0,29.97,NNW,338,0.0,0.0,90,0.00,,---,0.00,VWS V14.01,2013-07-15 00:38:00,
2013-07-14 19:43:00,73.0,69.9,29.97,NNW,338,0.0,0.0,90,0.00,,---,0.00,VWS V14.01,2013-07-15 00:43:00,
2013-07-14 19:48:00,72.8,69.7,29.97,NNW,338,0.0,0.0,90,0.00,,---,0.00,VWS V14.01,2013-07-15 00:48:00,
2013-07-14 19:54:00,72.8,70.0,29.97,NNW,338,0.0,0.0,91,0.00,,---,0.00,VWS V14.01,2013-07-15 00:54:00,
2013-07-14 19:59:00,72.8,70.0,29.97,NNW,338,0.0,0.0,91,0.00,,---,0.00,VWS V14.01,2013-07-15 00:59:00,
2013-07-14 20:04:00,72.8,70.0,29.97,NNW,338,0.0,0.0,91,0.00,,---,0.00,VWS V14.01,2013-07-15 01:04:00,
2013-07-14 20:09:00,72.8,70.0,29.97,NNW,338,0.0,0.0,91,0.00,,---,0.00,VWS V14.01,2013-07-15 01:09:00,
2013-07-14 20:14:00,72.8,70.0,29.97,ENE,68,0.0,0.0,91,0.00,,---,0.00,VWS V14.01,2013-07-15 01:14:00,
2013-07-14 20:19:00,72.6,69.8,29.97,ENE,68,0.0,0.0,91,0.00,,---,0.00,VWS V14.01,2013-07-15 01:19:00,
2013-07-14 20:24:00,72.6,70.2,29.97,NW,315,0.0,0.0,92,0.00,,---,0.00,VWS V14.01,2013-07-15 01:24:00,
2013-07-14 20:29:00,72.8,70.3,29.97,NW,315,0.0,0.0,92,0.00,,---,0.00,VWS V14.01,2013-07-15 01:29:00,
2013-07-14 20:34:00,72.6,70.2,29.97,NE,45,0.0,0.0,92,0.00,,---,0.00,VWS V14.01,2013-07-15 01:34:00,
2013-07-14 20:39:00,72.6,70.2,29.97,SW,225,0.0,0.0,92,0.00,,---,0.00,VWS V14.01,2013-07-15 01:39:00,
2013-07-14 20:44:00,72.6,70.2,29.97,SW,225,0.0,0.0,92,0.00,,---,0.00,VWS V14.01,2013-07-15 01:44:00,
2013-07-14 20:49:00,72.4,70.3,29.97,SW,225,0.0,0.0,93,0.00,,---,0.00,VWS V14.01,2013-07-15 01:49:00,
2013-07-14 20:54:00,72.4,70.3,29.97,WNW,292,0.0,0.0,93,0.00,,---,0.00,VWS V14.01,2013-07-15 01:54:00,
2013-07-14 20:59:00,72.4,70.3,29.97,West,270,0.0,0.0,93,0.00,,---,0.00,VWS V14.01,2013-07-15 01:59:00,
2013-07-14 21:04:00,72.4,70.3,29.97,West,270,0.0,0.0,93,0.00,,---,0.00,VWS V14.01,2013-07-15 02:04:00,
2013-07-14 21:09:00,72.2,70.1,29.97,NE,45,0.0,0.0,93,0.00,,---,0.00,VWS V14.01,2013-07-15 02:09:00,
2013-07-14 21:14:00,72.2,70.4,29.97,NE,45,0.0,0.0,94,0.00,,---,0.00,VWS V14.01,2013-07-15 02:14:00,
2013-07-14 21:19:00,72.2,70.1,29.97,NE,45,0.0,0.0,93,0.00,,---,0.00,VWS V14.01,2013-07-15 02:19:00,
2013-07-14 21:24:00,72.1,69.9,29.97,NE,45,0.0,0.0,93,0.00,,---,0.00,VWS V14.01,2013-07-15 02:24:00,
2013-07-14 21:29:00,72.1,70.2,30.00,NE,45,0.0,0.0,94,0.00,,---,0.00,VWS V14.01,2013-07-15 02:29:00,
2013-07-14 21:34:00,72.1,70.2,30.00,NE,45,0.0,0.0,94,0.00,,---,0.00,VWS V14.01,2013-07-15 02:34:00,
2013-07-14 21:39:00,72.1,70.2,30.00,ENE,68,0.0,0.0,94,0.00,,---,0.00,VWS V14.01,2013-07-15 02:39:00,
2013-07-14 21:45:00,71.9,70.1,30.00,ENE,68,0.0,0.0,94,0.00,,---,0.00,VWS V14.01,2013-07-15 02:45:00,
2013-07-14 21:50:00,71.9,70.1,30.00,ENE,68,0.0,0.0,94,0.00,,---,0.00,VWS V14.01,2013-07-15 02:50:00,
2013-07-14 21:55:00,71.9,70.1,30.00,NE,45,0.0,0.0,94,0.00,,---,0.00,VWS V14.01,2013-07-15 02:55:00,
2013-07-14 22:00:00,71.9,70.1,30.00,NE,45,0.0,0.0,94,0.00,,---,0.00,VWS V14.01,2013-07-15 03:00:00,
2013-07-14 22:05:00,71.9,70.1,30.00,ENE,68,0.0,0.0,94,0.00,,---,0.00,VWS V14.01,2013-07-15 03:05:00,
2013-07-14 22:10:00,71.9,70.1,30.00,SSE,158,0.0,0.0,94,0.00,,---,0.00,VWS V14.01,2013-07-15 03:10:00,
2013-07-14 22:15:00,71.7,69.9,30.00,SSE,158,0.0,0.0,94,0.00,,---,0.00,VWS V14.01,2013-07-15 03:15:00,
2013-07-14 22:20:00,71.9,70.4,30.00,WSW,248,0.0,0.0,95,0.00,,---,0.00,VWS V14.01,2013-07-15 03:20:00,
2013-07-14 22:25:00,71.9,70.4,30.00,WSW,248,0.0,0.0,95,0.00,,---,0.00,VWS V14.01,2013-07-15 03:25:00,
2013-07-14 22:30:00,71.9,70.4,30.00,WSW,248,0.0,0.0,95,0.00,,---,0.00,VWS V14.01,2013-07-15 03:30:00,
2013-07-14 22:35:00,71.9,70.4,30.00,SW,225,0.0,0.0,95,0.00,,---,0.00,VWS V14.01,2013-07-15 03:35:00,
2013-07-14 22:40:00,71.7,70.2,30.00,SW,225,0.0,0.0,95,0.00,,---,0.00,VWS V14.01,2013-07-15 03:40:00,
2013-07-14 22:45:00,71.7,70.2,30.00,SW,225,0.0,0.0,95,0.00,,---,0.00,VWS V14.01,2013-07-15 03:45:00,
2013-07-14 22:50:00,71.7,69.9,30.00,SW,225,0.0,0.0,94,0.00,,---,0.00,VWS V14.01,2013-07-15 03:50:00,
2013-07-14 22:55:00,71.5,69.7,30.00,ENE,68,0.0,0.0,94,0.00,,---,0.00,VWS V14.01,2013-07-15 03:55:00,
2013-07-14 23:00:00,71.5,70.0,30.00,ENE,68,0.0,0.0,95,0.00,,---,0.00,VWS V14.01,2013-07-15 04:00:00,
2013-07-14 23:01:00,71.5,70.0,30.00,ENE,68,0.0,0.0,95,0.00,,---,0.00,VWS V14.01,2013-07-15 04:01:00,
2013-07-14 23:06:00,71.3,69.5,30.00,ENE,68,0.0,0.0,94,0.00,,---,0.00,VWS V14.01,2013-07-15 04:06:00,
2013-07-14 23:11:00,71.2,69.3,30.00,ENE,68,0.0,0.0,94,0.00,,---,0.00,VWS V14.01,2013-07-15 04:11:00,
2013-07-14 23:16:00,71.2,69.7,30.00,ENE,68,0.0,0.0,95,0.00,,---,0.00,VWS V14.01,2013-07-15 04:16:00,
2013-07-14 23:21:00,71.2,69.7,30.00,ENE,68,0.0,0.0,95,0.00,,---,0.00,VWS V14.01,2013-07-15 04:21:00,
2013-07-14 23:26:00,71.2,69.7,30.00,ENE,68,0.0,0.0,95,0.00,,---,0.00,VWS V14.01,2013-07-15 04:26:00,
2013-07-14 23:31:00,71.2,69.7,30.00,ENE,68,0.0,0.0,95,0.00,,---,0.00,VWS V14.01,2013-07-15 04:31:00,
2013-07-14 23:36:00,71.0,69.5,30.00,ENE,68,0.0,0.0,95,0.00,,---,0.00,VWS V14.01,2013-07-15 04:36:00,
2013-07-14 23:41:00,71.0,69.5,30.00,NNW,338,0.0,0.0,95,0.00,,---,0.00,VWS V14.01,2013-07-15 04:41:00,
2013-07-14 23:47:00,70.8,69.3,30.00,NNW,338,0.0,0.0,95,0.00,,---,0.00,VWS V14.01,2013-07-15 04:47:00,
2013-07-14 23:52:00,70.8,69.3,30.00,NNW,338,0.0,0.0,95,0.00,,---,0.00,VWS V14.01,2013-07-15 04:52:00,
2013-07-14 23:57:00,70.8,69.3,30.00,NNW,338,0.0,0.0,95,0.00,,---,0.00,VWS V14.01,2013-07-15 04:57:00,